Weather History for Okeechobee, FL

Change the Weather History Date:

Thursday, July 18, 2013

  Actual Average Record
Temperature  
Mean Temperature 76 °F -  
Max Temperature 84 °F 90 °F 98 °F (1981)
Min Temperature 69 °F 73 °F 68 °F (2012)
Cooling Degree Days 12    
Growing Degree Days 26 (Base 50)    
Moisture  
Dew Point 72 °F    
Average Humidity 91    
Maximum Humidity 100    
Minimum Humidity 66    
Precipitation  
Precipitation 0.26 in - - ()
Sea Level Pressure  
Sea Level Pressure 30.11 in    
Wind  
Wind Speed 2 mph (SE)    
Max Wind Speed 14 mph    
Max Gust Speed 23 mph    
Visibility 10 miles    
Events Rain , Thunderstorm    
Averages and records for this station are not official NWS values.
T = Trace of Precipitation, MM = Missing Value Source: NWS Daily Summary

Daily Weather History Graph

Daily Weather History Graph

Search for Another Location

Airport:

Trip Planner

Search our weather history database for the weather conditions in past years. The results will help you decide how hot, cold, wet, or windy it might be!

Date:

Astronomy

Jul. 18, 2013 Rise Set
Actual Time 6:40 AM EDT 8:19 PM EDT
Civil Twilight 6:14 AM EDT 8:44 PM EDT
Nautical Twilight 5:43 AM EDT 9:15 PM EDT
Astronomical Twilight 5:10 AM EDT 9:48 PM EDT
Moon 4:16 PM EDT 2:24 AM EDT
Length of Visible Light 14h 30m
Length of Day
13h 39m
Waxing Gibbous, 77% of the Moon is Illuminated
Jul 18
Waxing Gibbous
Jul 22
Full
Jul 29
Last Quarter
Aug 6
New
Aug 14
First Quarter

Hourly Weather History & Observations

Time (EDT) Temp. Heat Index Dew Point Humidity Pressure Visibility Wind Dir Wind Speed Gust Speed Precip Events Conditions
12:15 AM 71.6 °F - 69.8 °F 94% 30.12 in 10.0 mi Calm Calm - N/A   Clear
12:35 AM 71.6 °F - 69.8 °F 94% 30.12 in 10.0 mi Calm Calm - N/A   Clear
12:55 AM 71.6 °F - 69.8 °F 94% 30.11 in 10.0 mi Calm Calm - N/A   Clear
1:15 AM 69.8 °F - 69.8 °F 100% 30.12 in 10.0 mi Calm Calm - N/A   Clear
1:35 AM 69.8 °F - 69.8 °F 100% 30.11 in 10.0 mi Calm Calm - N/A   Clear
1:55 AM 69.8 °F - 69.8 °F 100% 30.10 in 10.0 mi Calm Calm - N/A   Clear
2:15 AM 69.8 °F - 69.8 °F 100% 30.10 in 10.0 mi Calm Calm - N/A   Clear
2:35 AM 69.8 °F - 69.8 °F 100% 30.10 in 10.0 mi Calm Calm - N/A   Clear
2:55 AM 69.8 °F - 69.8 °F 100% 30.09 in 10.0 mi Calm Calm - N/A   Clear
3:15 AM 69.8 °F - 69.8 °F 100% 30.09 in 10.0 mi Calm Calm - N/A   Clear
3:35 AM 69.8 °F - 69.8 °F 100% 30.09 in 10.0 mi Calm Calm - N/A   Clear
3:55 AM 69.8 °F - 69.8 °F 100% 30.09 in 10.0 mi Calm Calm - N/A   Clear
4:15 AM 71.6 °F - 71.6 °F 100% 30.09 in 10.0 mi Calm Calm - N/A   Clear
4:35 AM 71.6 °F - 71.6 °F 100% 30.09 in 10.0 mi Calm Calm - N/A   Clear
4:55 AM 71.6 °F - 69.8 °F 94% 30.09 in 10.0 mi ENE 3.5 mph - N/A   Clear
5:15 AM 69.8 °F - 69.8 °F 100% 30.09 in 10.0 mi Calm Calm - N/A   Clear
5:35 AM 69.8 °F - 69.8 °F 100% 30.09 in 10.0 mi Calm Calm - N/A   Clear
5:55 AM 69.8 °F - 69.8 °F 100% 30.09 in 10.0 mi Calm Calm - N/A   Clear
6:15 AM 71.6 °F - 71.6 °F 100% 30.10 in 10.0 mi Calm Calm - N/A   Clear
6:35 AM 71.6 °F - 71.6 °F 100% 30.10 in 10.0 mi Calm Calm - N/A Rain Light Rain
6:55 AM 71.6 °F - 71.6 °F 100% 30.10 in 7.0 mi Calm Calm - 0.03 in   Scattered Clouds
7:15 AM 71.6 °F - 71.6 °F 100% 30.11 in 4.0 mi East 3.5 mph - N/A   Clear
7:35 AM 71.6 °F - 71.6 °F 100% 30.11 in 10.0 mi Calm Calm - N/A   Clear
7:55 AM 71.6 °F - 71.6 °F 100% 30.12 in 10.0 mi Calm Calm - N/A   Clear
8:15 AM 73.4 °F - 71.6 °F 94% 30.12 in 10.0 mi Calm Calm - N/A   Clear
8:35 AM 73.4 °F - 71.6 °F 94% 30.13 in 10.0 mi ESE 3.5 mph - N/A   Clear
8:55 AM 73.4 °F - 71.6 °F 94% 30.14 in 10.0 mi ESE 3.5 mph - N/A   Clear
9:15 AM 75.2 °F - 71.6 °F 89% 30.14 in 10.0 mi SE 3.5 mph - N/A   Clear
9:35 AM 77.0 °F - 71.6 °F 83% 30.14 in 10.0 mi Calm Calm - N/A   Clear
9:55 AM 77.0 °F - 71.6 °F 83% 30.14 in 10.0 mi Calm Calm - N/A   Scattered Clouds
10:15 AM 78.8 °F - 73.4 °F 83% 30.14 in 10.0 mi SE 4.6 mph - N/A   Overcast
10:35 AM 80.6 °F 85.4 °F 73.4 °F 79% 30.14 in 10.0 mi East 4.6 mph - N/A   Scattered Clouds
10:55 AM 80.6 °F 85.4 °F 73.4 °F 79% 30.14 in 10.0 mi East 4.6 mph - N/A   Scattered Clouds
11:15 AM 80.6 °F 84.6 °F 71.6 °F 74% 30.14 in 10.0 mi East 5.8 mph - N/A   Scattered Clouds
11:35 AM 82.4 °F 87.2 °F 71.6 °F 70% 30.13 in 10.0 mi East 5.8 mph - N/A   Mostly Cloudy
11:55 AM 82.4 °F 87.2 °F 71.6 °F 70% 30.13 in 10.0 mi ESE 6.9 mph - N/A   Scattered Clouds
12:15 PM 82.4 °F 87.2 °F 71.6 °F 70% 30.13 in 10.0 mi SE 6.9 mph - N/A   Mostly Cloudy
12:35 PM 82.4 °F 87.2 °F 71.6 °F 70% 30.13 in 10.0 mi Calm Calm - N/A   Scattered Clouds
12:55 PM 82.4 °F 87.2 °F 71.6 °F 70% 30.13 in 10.0 mi Calm Calm - N/A   Scattered Clouds
1:15 PM 82.4 °F 88.2 °F 73.4 °F 74% 30.13 in 10.0 mi SSE 5.8 mph - N/A   Mostly Cloudy
1:35 PM 84.2 °F 89.6 °F 71.6 °F 66% 30.12 in 10.0 mi Calm Calm - N/A   Scattered Clouds
1:55 PM 82.4 °F 88.2 °F 73.4 °F 74% 30.11 in 10.0 mi East 4.6 mph - N/A   Mostly Cloudy
2:15 PM 82.4 °F 88.2 °F 73.4 °F 74% 30.10 in 10.0 mi SSE 9.2 mph - N/A   Overcast
2:35 PM 82.4 °F 87.2 °F 71.6 °F 70% 30.10 in 10.0 mi SE 9.2 mph 17.3 mph N/A Thunderstorm Mostly Cloudy
2:55 PM 80.6 °F 85.4 °F 73.4 °F 79% 30.11 in 10.0 mi SE 13.8 mph 23.0 mph N/A Thunderstorm Scattered Clouds
3:15 PM 78.8 °F - 73.4 °F 83% 30.11 in 10.0 mi SE 11.5 mph 20.7 mph N/A Thunderstorm Mostly Cloudy
3:35 PM 78.8 °F - 71.6 °F 78% 30.11 in 10.0 mi SSE 12.7 mph 16.1 mph N/A   Scattered Clouds
3:55 PM 77.0 °F - 71.6 °F 83% 30.09 in 10.0 mi ESE 3.5 mph - N/A   Light Drizzle
4:15 PM 77.0 °F - 71.6 °F 83% 30.10 in 10.0 mi SE 4.6 mph - N/A   Mostly Cloudy
4:35 PM 77.0 °F - 73.4 °F 89% 30.10 in 10.0 mi ESE 3.5 mph - N/A   Mostly Cloudy
4:55 PM 77.0 °F - 71.6 °F 83% 30.09 in 10.0 mi Calm Calm - N/A Thunderstorm Mostly Cloudy
5:15 PM 77.0 °F - 73.4 °F 89% 30.09 in 10.0 mi Calm Calm - N/A Thunderstorm Scattered Clouds
5:35 PM 78.8 °F - 73.4 °F 83% 30.08 in 10.0 mi ESE 4.6 mph - N/A   Clear
6:35 PM 73.4 °F - 71.6 °F 94% 30.07 in 10.0 mi Calm Calm - 0.20 in Rain Rain
6:55 PM 73.4 °F - 73.4 °F 100% 30.08 in 7.0 mi SE 3.5 mph - 0.23 in Rain Light Rain
7:15 PM 73.4 °F - 73.4 °F 100% 30.09 in 10.0 mi SW 5.8 mph - N/A Rain Rain
7:35 PM 73.4 °F - 73.4 °F 100% 30.10 in 10.0 mi SW 5.8 mph - N/A   Light Drizzle
7:55 PM 73.4 °F - 71.6 °F 94% 30.10 in 10.0 mi WSW 5.8 mph - N/A   Light Drizzle
8:15 PM 73.4 °F - 71.6 °F 94% 30.11 in 10.0 mi Calm Calm - N/A   Light Drizzle
8:35 PM 71.6 °F - 71.6 °F 100% 30.11 in 10.0 mi Calm Calm - N/A   Scattered Clouds
8:55 PM 71.6 °F - 71.6 °F 100% 30.11 in 10.0 mi Calm Calm - N/A   Clear
9:15 PM 71.6 °F - 71.6 °F 100% 30.11 in 10.0 mi South 3.5 mph - N/A   Clear
9:35 PM 71.6 °F - 71.6 °F 100% 30.11 in 10.0 mi Calm Calm - N/A   Clear
9:55 PM 71.6 °F - 71.6 °F 100% 30.11 in 10.0 mi Calm Calm - N/A   Clear
10:15 PM 71.6 °F - 71.6 °F 100% 30.11 in 10.0 mi Calm Calm - N/A   Clear
10:35 PM 71.6 °F - 71.6 °F 100% 30.12 in 10.0 mi Calm Calm - N/A   Clear
10:55 PM 71.6 °F - 71.6 °F 100% 30.12 in 10.0 mi Calm Calm - N/A   Clear
11:15 PM 71.6 °F - 71.6 °F 100% 30.12 in 10.0 mi Calm Calm - N/A   Clear
11:35 PM 71.6 °F - 71.6 °F 100% 30.12 in 10.0 mi Calm Calm - N/A   Clear
11:55 PM 71.6 °F - 71.6 °F 100% 30.12 in 10.0 mi NNE 3.5 mph - N/A   Clear